Date String (YYYY-MM-DD hh:mm:ss) UTC,Instrument flags,absolute air pressure of the measurement (hPa),sample flow rate (lpm),inlet stack bypass flow (lpm),air temperature of the measurement (°C),ambient temperature measured by the external sensor (°C),aerosol sample conditioner tube jacket temperature (°C),OPC LED temperature (°C),internal box temperature (°C),relative humidity of the measurement (%),span deviation,mass concentration of particles derived from Lorenz-Mie calculation of OPC scattering (μg/m³),mass concentration of particles derived from Lorenz-Mie calculation of OPC scattering (μg/m³),mass concentration of particles derived from Lorenz-Mie calculation of OPC scattering (μg/m³)
DateTimeUTC,F1_M11,P_M11,Q1_M11,Q2_M11,T1_M11,T2_M11,T3_M11,T4_M11,T5_M11,U1_M11,ZSPAN_M11,X2_M11,X0_M11,X1_M11
2023-06-24 07:00:00,SystemResetWarning,0828.7,5.00,000.00,029.9,028.3,000.0,038.4,031.4,6.9,0004.5,0005.33,0012.50,0004.54
2023-06-24 07:01:00,SystemResetWarning,0828.8,5.00,000.00,029.9,028.4,000.0,038.4,031.4,6.9,0004.1,0005.34,0012.47,0004.56
2023-06-24 07:02:00,SystemResetWarning,0828.8,5.00,000.00,029.9,028.4,000.0,038.4,031.4,7.2,0004.1,0005.39,0012.75,0004.56
2023-06-24 07:03:00,SystemResetWarning,0828.8,5.00,000.00,030.0,028.4,000.0,038.4,031.4,6.8,0004.1,0005.38,0013.07,0004.56
2023-06-24 07:04:00,SystemResetWarning,0828.9,5.00,000.00,030.0,028.4,000.0,038.4,031.4,7.1,0004.4,0005.38,0013.11,0004.56
2023-06-24 07:05:00,SystemResetWarning,0829.0,5.00,000.00,030.0,028.5,000.0,038.4,031.5,7.1,0004.4,0005.40,0013.12,0004.56
2023-06-24 07:06:00,SystemResetWarning,0829.0,5.00,000.00,030.0,028.5,000.0,038.5,031.5,7.0,0004.1,0005.41,0013.36,0004.56
2023-06-24 07:07:00,SystemResetWarning,0829.0,5.01,000.00,030.0,028.5,000.0,038.5,031.5,7.1,0004.0,0005.42,0013.31,0004.56
2023-06-24 07:08:00,SystemResetWarning,0828.9,5.00,000.00,030.0,028.5,000.0,038.5,031.5,6.8,0004.1,0005.43,0013.56,0004.55
2023-06-24 07:09:00,SystemResetWarning,0828.9,5.00,000.00,030.1,028.6,000.0,038.5,031.5,6.8,0004.0,0005.39,0013.81,0004.54
2023-06-24 07:10:00,SystemResetWarning,0828.9,5.01,000.00,030.1,028.6,000.0,038.5,031.5,6.8,0004.2,0005.37,0013.72,0004.51
2023-06-24 07:11:00,SystemResetWarning,0828.9,5.00,000.00,030.1,028.6,000.0,038.5,031.6,6.9,0004.2,0005.35,0014.56,0004.50
2023-06-24 07:12:00,SystemResetWarning,0828.9,4.99,000.00,030.1,028.6,000.0,038.6,031.6,7.0,0004.8,0005.36,0015.25,0004.49
2023-06-24 07:13:00,SystemResetWarning,0829.0,4.99,000.00,030.1,028.6,000.0,038.6,031.6,6.7,0004.9,0005.37,0015.16,0004.49
2023-06-24 07:14:00,SystemResetWarning,0829.0,4.99,000.00,030.2,027.6,000.0,038.6,031.7,6.5,0005.0,0005.39,0015.05,0004.49
2023-06-24 07:15:00,SystemResetWarning,0829.0,5.00,000.00,030.1,025.1,000.0,038.5,031.6,6.5,0004.5,0005.36,0014.32,0004.48
2023-06-24 07:16:00,SystemResetWarning,0829.0,5.00,000.00,030.1,024.6,000.0,038.4,031.4,6.9,0004.4,0005.33,0013.86,0004.48
2023-06-24 07:17:00,SystemResetWarning,0828.9,5.01,000.00,029.9,024.9,000.0,038.4,031.0,6.8,0004.8,0005.33,0014.08,0004.48
2023-06-24 07:18:00,SystemResetWarning,0828.9,4.99,000.00,029.8,025.4,000.0,038.4,031.0,7.0,0004.6,0005.34,0014.39,0004.48
2023-06-24 07:19:00,SystemResetWarning,0828.9,5.00,000.00,029.8,025.8,000.0,038.4,031.0,7.0,0004.3,0005.32,0014.44,0004.48
2023-06-24 07:20:00,SystemResetWarning,0829.0,5.00,000.00,029.8,026.3,000.0,038.4,031.0,6.7,0004.3,0005.32,0013.56,0004.48
2023-06-24 07:21:00,SystemResetWarning,0828.9,4.98,000.00,029.7,026.6,000.0,038.4,031.0,6.5,0004.4,0005.35,0013.44,0004.49
2023-06-24 07:22:00,SystemResetWarning,0829.0,5.00,000.00,029.7,026.9,000.0,038.4,031.0,6.8,0003.9,0005.41,0012.74,0004.49
2023-06-24 07:23:00,SystemResetWarning,0829.0,5.02,000.00,029.7,027.2,000.0,038.3,031.1,6.6,0003.0,0005.42,0011.81,0004.50
2023-06-24 07:24:00,SystemResetWarning,0829.0,5.00,000.00,029.7,027.4,000.0,038.3,031.1,6.8,0002.9,0005.40,0011.98,0004.50
2023-06-24 07:25:00,SystemResetWarning,0828.9,4.99,000.00,029.7,027.6,000.0,038.3,031.1,6.4,0003.1,0005.43,0012.25,0004.49
2023-06-24 07:26:00,SystemResetWarning,0829.0,5.00,000.00,029.7,027.7,000.0,038.3,031.2,6.6,0003.7,0005.49,0012.57,0004.50
2023-06-24 07:27:00,SystemResetWarning,0828.9,5.00,000.00,029.7,027.8,000.0,038.3,031.2,7.3,0003.8,0005.51,0012.99,0004.50
2023-06-24 07:28:00,SystemResetWarning,0829.0,5.00,000.00,029.8,027.9,000.0,038.3,031.2,7.5,0003.7,0005.49,0014.32,0004.48
2023-06-24 07:29:00,SystemResetWarning,0829.0,5.00,000.00,029.8,028.0,000.0,038.3,031.2,7.4,0003.3,0005.46,0014.11,0004.47
2023-06-24 07:30:00,SystemResetWarning,0829.0,5.00,000.00,029.8,028.0,000.0,038.3,031.2,6.9,0003.5,0005.49,0014.10,0004.47
2023-06-24 07:31:00,SystemResetWarning,0829.0,5.00,000.00,029.8,028.1,000.0,038.3,031.3,6.6,0003.8,0005.53,0014.34,0004.47
2023-06-24 07:32:00,SystemResetWarning,0829.0,5.01,000.00,029.8,028.2,000.0,038.3,031.3,6.4,0003.9,0005.45,0014.22,0004.45
2023-06-24 07:33:00,SystemResetWarning,0829.1,5.00,000.00,029.8,028.2,000.0,038.3,031.3,6.7,0004.4,0005.42,0014.60,0004.44
2023-06-24 07:34:00,SystemResetWarning,0829.0,4.99,000.00,029.9,028.2,000.0,038.4,031.3,6.9,0004.9,0005.39,0014.57,0004.42
2023-06-24 07:35:00,SystemResetWarning,0829.0,4.99,000.00,029.9,028.3,000.0,038.4,031.3,6.7,0003.9,0005.37,0014.34,0004.42
2023-06-24 07:36:00,SystemResetWarning,0829.0,5.00,000.00,029.9,028.3,000.0,038.4,031.3,6.7,0004.8,0005.34,0013.88,0004.42
2023-06-24 07:37:00,SystemResetWarning,0829.0,5.01,000.00,029.9,028.3,000.0,038.4,031.4,6.9,0004.7,0005.31,0013.74,0004.41
2023-06-24 07:38:00,SystemResetWarning,0829.0,5.01,000.00,029.9,028.4,000.0,038.4,031.4,6.7,0004.9,0005.30,0014.58,0004.40
2023-06-24 07:39:00,SystemResetWarning,0829.0,5.00,000.00,030.0,028.4,000.0,038.4,031.4,6.5,0005.0,0005.29,0013.11,0004.40
2023-06-24 07:40:00,SystemResetWarning,0829.0,4.99,000.00,030.0,028.4,000.0,038.4,031.4,6.8,0001.2,0005.34,0012.99,0004.40
2023-06-24 07:41:00,SystemResetWarning,0829.1,4.99,000.00,030.0,028.5,000.0,038.4,031.5,6.8,0002.4,0005.33,0012.70,0004.39
2023-06-24 07:42:00,SystemResetWarning,0829.1,5.00,000.00,030.0,028.5,000.0,038.5,031.5,6.9,0002.2,0005.29,0012.70,0004.38
2023-06-24 07:43:00,SystemResetWarning,0829.0,5.00,000.00,030.0,028.5,000.0,038.5,031.5,6.6,0000.0,0005.31,0012.92,0004.38
2023-06-24 07:44:00,SystemResetWarning,0829.1,5.00,000.00,030.1,028.5,000.0,038.5,031.5,6.7,0000.8,0005.34,0013.13,0004.38
2023-06-24 07:45:00,SystemResetWarning,0829.0,5.00,000.00,030.1,028.6,000.0,038.5,031.6,6.7,0000.0,0005.34,0013.60,0004.37
2023-06-24 07:46:00,SystemResetWarning,0828.9,5.00,000.00,030.1,028.6,000.0,038.5,031.6,6.6,0000.0,0005.32,0014.20,0004.36
2023-06-24 07:47:00,SystemResetWarning,0829.0,5.00,000.00,030.1,028.6,000.0,038.6,031.6,6.5,0000.0,0005.33,0014.19,0004.38
2023-06-24 07:48:00,SystemResetWarning,0829.0,4.99,000.00,030.1,028.6,000.0,038.6,031.6,6.5,0002.9,0005.36,0014.00,0004.39
2023-06-24 07:49:00,SystemResetWarning,0829.0,4.99,000.00,030.1,028.7,000.0,038.6,031.6,6.7,0004.4,0005.35,0012.98,0004.39
2023-06-24 07:50:00,SystemResetWarning,0829.0,4.99,000.00,030.2,028.7,000.0,038.6,031.6,6.4,0002.0,0005.37,0012.65,0004.38
2023-06-24 07:51:00,SystemResetWarning,0829.0,5.00,000.00,030.2,028.7,000.0,038.6,031.7,6.4,0004.3,0005.35,0012.72,0004.37
2023-06-24 07:52:00,SystemResetWarning,0829.0,5.01,000.00,030.2,028.7,000.0,038.6,031.7,6.4,0004.4,0005.31,0012.57,0004.37
2023-06-24 07:53:00,SystemResetWarning,0829.1,5.01,000.00,030.2,028.7,000.0,038.7,031.7,6.8,0004.5,0005.31,0013.43,0004.37
2023-06-24 07:54:00,SystemResetWarning,0829.1,4.99,000.00,030.2,028.6,000.0,038.7,031.7,6.7,0004.3,0005.30,0013.14,0004.37
2023-06-24 07:55:00,SystemResetWarning,0829.0,4.98,000.00,030.2,026.4,000.0,038.6,031.7,6.6,0004.4,0005.30,0012.81,0004.36
2023-06-24 07:56:00,SystemResetWarning,0829.0,5.01,000.00,030.2,024.8,000.0,038.5,031.7,6.6,0004.4,0005.31,0012.76,0004.36
2023-06-24 07:57:00,SystemResetWarning,0829.0,5.01,000.00,030.1,024.8,000.0,038.5,031.3,6.5,0005.0,0005.35,0012.32,0004.35
2023-06-24 07:58:00,SystemResetWarning,0828.9,5.00,000.00,030.0,025.2,000.0,038.5,031.1,6.5,0005.1,0005.37,0012.48,0004.33
2023-06-24 07:59:00,SystemResetWarning,0829.0,5.01,000.00,029.9,025.7,000.0,038.5,031.1,6.6,0005.5,0005.35,0012.62,0004.32
